Weather History for Cincinnati, OH

Change the Weather History Date:

Monday, April 28, 2014

  Actual Average Record
Temperature  
Mean Temperature 60 °F -  
Max Temperature 70 °F 68 °F 84 °F (1981)
Min Temperature 51 °F 47 °F 31 °F (1976)
Degree Days  
Heating Degree Days 4    
Growing Degree Days 10 (Base 50)    
Moisture  
Dew Point 55 °F    
Average Humidity 87    
Maximum Humidity 100    
Minimum Humidity 51    
Precipitation  
Precipitation 1.01 in - - ()
Sea Level Pressure  
Sea Level Pressure 29.75 in    
Wind  
Wind Speed 7 mph (East)    
Max Wind Speed 15 mph    
Max Gust Speed 21 mph    
Visibility 9 miles    
Events Rain , Thunderstorm    
Averages and records for this station are not official NWS values.
T = Trace of Precipitation, MM = Missing Value Source: NWS Daily Summary

Daily Weather History Graph

Daily Weather History Graph

Search for Another Location

Airport:

Trip Planner

Search our weather history database for the weather conditions in past years. The results will help you decide how hot, cold, wet, or windy it might be!

Date:

Astronomy

Apr. 28, 2014 Rise Set
Actual Time 6:43 AM EDT 8:27 PM EDT
Civil Twilight 6:14 AM EDT 8:56 PM EDT
Nautical Twilight 5:39 AM EDT 9:31 PM EDT
Astronomical Twilight 5:03 AM EDT 10:08 PM EDT
Moon 6:20 AM EDT (4/28) 8:05 PM EDT (4/28)
Length of Visible Light 14h 41m
Length of Day
13h 44m
Waning Crescent, 0% of the Moon is Illuminated
Apr 28
Waning Crescent
Apr 29
New
May 6
First Quarter
May 14
Full
May 21
Last Quarter

Hourly Weather History & Observations

Time (EDT) Temp. Dew Point Humidity Pressure Visibility Wind Dir Wind Speed Gust Speed Precip Events Conditions
12:53 AM 57.2 °F 48.2 °F 72% 29.90 in 10.0 mi ENE 3.5 mph - N/A   Mostly Cloudy
1:53 AM 57.9 °F 48.0 °F 70% 29.88 in 10.0 mi NNE 5.8 mph - N/A   Overcast
2:53 AM 60.8 °F 44.6 °F 55% 29.85 in 10.0 mi NE 6.9 mph - N/A   Overcast
3:53 AM 59.0 °F 44.6 °F 59% 29.79 in 10.0 mi NE 11.5 mph - N/A   Scattered Clouds
4:53 AM 60.1 °F 42.1 °F 51% 29.80 in 10.0 mi NNE 5.8 mph - N/A   Mostly Cloudy
5:53 AM 57.2 °F 46.4 °F 67% 29.78 in 10.0 mi NNE 5.8 mph - N/A   Overcast
6:53 AM 55.0 °F 46.0 °F 72% 29.73 in 10.0 mi ENE 9.2 mph - 0.02 in Rain Light Rain
7:38 AM 53.1 °F 48.0 °F 83% 29.75 in 7.0 mi NNE 6.9 mph - 0.02 in Rain , Thunderstorm Thunderstorms and Rain
7:53 AM 53.1 °F 48.0 °F 83% 29.71 in 9.0 mi NE 10.4 mph - 0.04 in Rain , Thunderstorm Thunderstorms and Rain
8:53 AM 51.1 °F 51.1 °F 100% 29.75 in 3.0 mi ENE 4.6 mph - 0.45 in Rain , Thunderstorm Thunderstorms and Rain
9:20 AM 52.0 °F - N/A% 29.75 in 7.0 mi East 8.1 mph - 0.07 in Rain Light Rain
9:53 AM 52.0 °F 52.0 °F 100% 29.75 in 5.0 mi North 5.8 mph - 0.10 in Rain Light Rain
10:23 AM 53.1 °F 53.1 °F 100% 29.74 in 6.0 mi NNW 3.5 mph - 0.03 in Rain Light Rain
10:45 AM 55.0 °F 55.0 °F 100% 29.76 in 10.0 mi West 4.6 mph - 0.03 in Rain Light Rain
10:53 AM 55.9 °F 55.9 °F 100% 29.75 in 10.0 mi Calm Calm - 0.03 in Rain Light Rain
11:53 AM 57.9 °F 57.9 °F 100% 29.73 in 10.0 mi Calm Calm - 0.00 in   Mostly Cloudy
12:30 PM 61.0 °F 61.0 °F 100% 29.73 in 10.0 mi Calm Calm - N/A   Mostly Cloudy
12:53 PM 63.0 °F 63.0 °F 100% 29.74 in 10.0 mi South 11.5 mph - N/A   Overcast
1:53 PM 66.9 °F 66.0 °F 97% 29.70 in 10.0 mi SE 6.9 mph - N/A   Mostly Cloudy
2:53 PM 69.1 °F 66.0 °F 90% 29.70 in 10.0 mi South 15.0 mph - 0.00 in Rain Light Rain
3:53 PM 70.0 °F 62.1 °F 76% 29.74 in 10.0 mi SSW 12.7 mph - 0.00 in Rain Light Rain
4:53 PM 68.0 °F 62.1 °F 81% 29.73 in 10.0 mi SSW 9.2 mph - 0.00 in Rain Light Rain
6:53 PM 66.0 °F 63.0 °F 90% 29.73 in 10.0 mi SSW 6.9 mph - 0.00 in   Overcast
7:53 PM 63.0 °F 63.0 °F 100% 29.72 in 8.0 mi SSE 5.8 mph - 0.12 in Rain Light Rain
8:53 PM 62.1 °F 62.1 °F 100% 29.72 in 5.0 mi SSE 8.1 mph - 0.08 in Rain Rain
9:53 PM 61.0 °F 61.0 °F 100% 29.69 in 6.0 mi South 5.8 mph - 0.13 in Rain Rain
10:53 PM 62.1 °F 62.1 °F 100% 29.70 in 8.0 mi SE 15.0 mph 20.7 mph 0.02 in Rain Light Rain
11:53 PM 62.1 °F 61.0 °F 96% 29.66 in 6.0 mi SE 10.4 mph - 0.02 in Rain Rain